FW8536 Weather Reports


Display with metric or nautical units.
time (UTC)temp
F
wind
direction
speed
MPH
gust
MPH
rain 1hr
in
rain 24hr
in
rain mn
in
humidity
%
barometer
mb
20260831100502 52 235 8.0 12.0 0.00 0.00 0.00 82 996.2
20260831100001 52 360 9.0 12.0 0.00 0.00 0.00 82 996.2
20260831095503 52 236 9.0 14.0 0.00 0.00 0.00 83 996.3
20260831095100 51 229 8.0 14.0 0.00 0.00 0.00 84 996.3
20260831094600 50 226 8.0 11.0 0.00 0.00 0.00 84 996.2
20260831094100 50 211 7.0 12.0 0.00 0.00 0.00 83 996.1
20260831093600 51 227 9.0 13.0 0.00 0.00 0.00 82 996.1
20260831092558 51 224 9.0 12.0 0.00 0.00 0.00 83 996.2
20260831092057 51 225 9.0 12.0 0.00 0.00 0.00 83 996.1
20260831091602 51 226 9.0 11.0 0.00 0.00 0.00 83 995.9
20260831091057 51 360 8.0 11.0 0.00 0.00 0.00 83 995.9
20260831090558 51 360 8.0 11.0 0.00 0.00 0.00 83 995.8
20260831090057 51 360 8.0 11.0 0.00 0.00 0.00 83 995.9
20260831085557 51 227 8.0 10.0 0.00 0.00 0.00 84 995.9
20260831085056 51 360 8.0 10.0 0.00 0.00 0.00 84 995.9
20260831084634 50 225 7.0 10.0 0.00 0.00 0.00 84 996.0
20260831084056 50 360 8.0 11.0 0.00 0.00 0.00 84 995.8
20260831083556 50 230 8.0 11.0 0.00 0.00 0.00 84 995.8
20260831082557 49 230 7.0 10.0 0.00 0.00 0.00 85 995.8
20260831082057 49 221 6.0 8.0 0.00 0.00 0.00 85 995.9
20260831081557 49 215 6.0 8.0 0.00 0.00 0.00 85 995.9
20260831081056 49 360 6.0 8.0 0.00 0.00 0.00 85 995.9
20260831080556 49 360 5.0 7.0 0.00 0.00 0.00 84 995.7
20260831080107 49 218 5.0 7.0 0.00 0.00 0.00 84 995.9
20260831075555 50 360 3.0 9.0 0.00 0.00 0.00 82 995.8
20260831075052 51 360 6.0 11.0 0.00 0.00 0.00 82 995.8
20260831074601 51 360 8.0 11.0 0.00 0.00 0.00 82 995.6
20260831074051 51 360 7.0 10.0 0.00 0.00 0.00 82 995.6
20260831073551 51 222 7.0 10.0 0.00 0.00 0.00 83 995.6
20260831072553 51 360 7.0 9.0 0.00 0.00 0.00 84 995.7
20260831072049 50 360 7.0 9.0 0.00 0.00 0.00 84 995.7
20260831071600 51 182 6.0 9.0 0.00 0.00 0.00 83 995.8
20260831071048 51 360 6.0 10.0 0.00 0.00 0.00 82 995.6
20260831070547 52 360 7.0 10.0 0.00 0.00 0.00 83 995.5
20260831070047 51 360 7.0 10.0 0.00 0.00 0.00 83 995.5
20260831065545 52 360 7.0 9.0 0.00 0.00 0.00 82 995.5
20260831065046 52 360 6.0 9.0 0.00 0.00 0.00 82 995.5
20260831064546 52 212 6.0 10.0 0.00 0.00 0.00 82 995.6
20260831064044 52 360 7.0 10.0 0.00 0.00 0.00 83 995.7
20260831063545 51 360 5.0 7.0 0.00 0.00 0.00 83 995.8
20260831062547 52 360 5.0 10.0 0.00 0.00 0.00 82 995.7
20260831062044 52 360 7.0 10.0 0.00 0.00 0.00 82 995.9
20260831061545 52 360 7.0 9.0 0.00 0.00 0.00 83 995.9
20260831061044 52 360 7.0 9.0 0.00 0.00 0.00 83 996.0
20260831060541 52 198 7.0 9.0 0.00 0.00 0.00 84 996.1
20260831060056 51 360 6.0 8.0 0.00 0.00 0.00 84 996.0
20260831055540 51 234 4.0 6.0 0.00 0.00 0.00 84 996.0
20260831055039 52 360 4.0 6.0 0.00 0.00 0.00 83 996.0
20260831054539 52 360 4.0 7.0 0.00 0.00 0.00 83 995.9
20260831054039 52 360 4.0 8.0 0.00 0.00 0.00 82 995.9
20260831053537 53 360 5.0 8.0 0.00 0.00 0.00 82 995.9
20260831052537 53 248 5.0 7.0 0.00 0.00 0.00 83 996.0
20260831052035 52 250 4.0 6.0 0.00 0.00 0.00 83 995.9
20260831051538 52 251 2.0 5.0 0.00 0.00 0.00 83 995.8
20260831051035 52 251 2.0 5.0 0.00 0.00 0.00 83 995.9
20260831050536 53 251 2.0 6.0 0.00 0.00 0.00 81 995.8
20260831050033 53 251 3.0 6.0 0.00 0.00 0.00 82 996.0
20260831045533 53 252 1.0 5.0 0.00 0.00 0.00 82 995.9
20260831045032 53 252 1.0 5.0 0.00 0.00 0.00 82 995.9
20260831044532 53 252 3.0 5.0 0.00 0.00 0.00 81 995.8
20260831044030 54 252 3.0 5.0 0.00 0.00 0.00 81 995.8
20260831043530 55 360 3.0 6.0 0.00 0.00 0.00 79 995.8
20260831042529 55 360 4.0 5.0 0.00 0.00 0.00 79 995.7
20260831042028 56 360 3.0 5.0 0.00 0.00 0.00 79 995.6
20260831041526 56 242 4.0 6.0 0.00 0.00 0.00 79 995.8
20260831041026 56 360 4.0 6.0 0.00 0.00 0.00 79 995.9
20260831040525 56 360 4.0 5.0 0.00 0.00 0.00 78 995.8
20260831040025 56 360 3.0 6.0 0.00 0.00 0.00 78 995.8
20260831035524 56 252 4.0 6.0 0.00 0.00 0.00 78 995.8
20260831035023 56 252 5.0 7.0 0.00 0.00 0.00 77 995.9
20260831034522 57 253 5.0 9.0 0.00 0.00 0.00 77 995.9
20260831034022 57 254 7.0 9.0 0.00 0.00 0.00 77 995.9
20260831033524 58 261 6.0 8.0 0.00 0.00 0.00 75 995.7
20260831032523 58 265 6.0 7.0 0.00 0.00 0.00 75 995.9
20260831032021 58 360 5.0 7.0 0.00 0.00 0.00 75 995.8
20260831031518 58 279 5.0 6.0 0.00 0.00 0.00 75 995.9
20260831031017 58 279 4.0 6.0 0.00 0.00 0.00 75 995.9
20260831030517 58 279 5.0 6.0 0.00 0.00 0.00 75 995.9
20260831030017 58 279 5.0 6.0 0.00 0.00 0.00 76 995.9
20260831025516 58 280 5.0 6.0 0.00 0.00 0.00 75 995.9
20260831025016 58 280 5.0 6.0 0.00 0.00 0.00 76 995.8
20260831024523 58 360 4.0 5.0 0.00 0.00 0.00 75 995.8
20260831024015 58 280 4.0 6.0 0.00 0.00 0.00 75 995.7
20260831023513 59 280 4.0 6.0 0.00 0.00 0.00 73 995.7
20260831022513 59 280 5.0 5.0 0.00 0.00 0.00 73 995.4
20260831022012 59 280 4.0 6.0 0.00 0.00 0.00 72 995.4
20260831021512 59 360 5.0 6.0 0.00 0.00 0.00 72 995.3
20260831021010 60 280 5.0 6.0 0.00 0.00 0.00 71 995.2
20260831020508 60 360 5.0 6.0 0.00 0.00 0.00 70 995.1
20260831020008 61 360 5.0 7.0 0.00 0.00 0.00 68 995.0
20260831015508 62 277 5.0 9.0 0.00 0.00 0.00 67 995.0
20260831015005 62 271 6.0 9.0 0.00 0.00 0.00 66 994.9
20260831014506 63 264 7.0 12.0 0.00 0.00 0.00 64 994.8
20260831014004 63 360 7.0 14.0 0.00 0.00 0.00 63 994.7
20260831013504 64 265 9.0 14.0 0.00 0.00 0.00 62 994.5
20260831012503 65 246 11.0 20.0 0.00 0.00 0.00 60 994.7
20260831012002 65 248 15.0 20.0 0.00 0.00 0.00 59 994.6
20260831011503 65 252 9.0 13.0 0.00 0.00 0.00 61 994.7
20260831011002 65 360 9.0 15.0 0.00 0.00 0.00 61 994.6
20260831010501 66 360 8.0 15.0 0.00 0.00 0.00 60 994.4
20260831010001 66 360 10.0 15.0 0.00 0.00 0.00 59 994.5
20260831005501 66 360 9.0 15.0 0.00 0.00 0.00 59 994.4
20260831005001 67 360 11.0 14.0 0.00 0.00 0.00 59 994.4
20260831004501 67 360 8.0 14.0 0.00 0.00 0.00 60 994.2
20260831004001 67 216 9.0 15.0 0.00 0.00 0.00 59 994.2
20260831003601 67 228 10.0 15.0 0.00 0.00 0.00 60 994.2
20260831002501 67 360 9.0 14.0 0.00 0.00 0.00 63 994.3
20260831002001 67 360 8.0 12.0 0.00 0.00 0.00 66 994.2
20260831001503 66 207 7.0 11.0 0.00 0.00 0.00 66 994.0
20260831001100 66 222 7.0 11.0 0.00 0.00 0.00 68 994.1
20260831000600 65 360 6.0 11.0 0.00 0.00 0.00 71 994.1
20260830235600 64 194 7.0 12.0 0.00 0.00 0.00 72 994.4
20260830235059 64 215 7.0 12.0 0.00 0.00 0.00 71 994.3
20260830234606 64 360 7.0 10.0 0.00 0.00 0.00 72 994.4
20260830234058 64 202 7.0 10.0 0.00 0.00 0.00 72 994.5
20260830233559 64 202 6.0 9.0 0.00 0.00 0.00 73 994.4
20260830232559 63 222 5.0 9.0 0.00 0.00 0.00 77 994.7
20260830232058 63 360 7.0 10.0 0.00 0.00 0.00 77 994.6
20260830231604 63 194 6.0 10.0 0.00 0.00 0.00 77 994.7
20260830231057 63 259 2.0 5.0 0.00 0.00 0.00 74 994.2
20260830230556 63 360 2.0 8.0 0.00 0.00 0.00 74 993.8
20260830230055 63 248 4.0 19.0 0.00 0.00 0.00 73 994.0
20260830225555 64 360 11.0 19.0 0.00 0.00 0.00 71 994.6
20260830225053 64 360 12.0 20.0 0.00 0.00 0.00 69 994.8
20260830224605 65 360 14.0 23.0 0.00 0.00 0.00 66 995.0
20260830224052 66 234 17.0 26.0 0.00 0.00 0.00 64 995.3
20260830223550 66 240 18.0 31.0 0.00 0.00 0.00 62 995.1
20260830222550 67 360 27.0 34.0 0.00 0.00 0.00 61 995.5
20260830222049 67 236 26.0 36.0 0.00 0.00 0.00 61 995.4
20260830221549 69 244 24.0 38.0 0.00 0.00 0.00 60 995.3
20260830221049 70 244 28.0 38.0 0.00 0.00 0.00 57 995.2
20260830220547 69 242 25.0 33.0 0.00 0.00 0.00 58 994.9
20260830220048 68 248 23.0 33.0 0.00 0.00 0.00 58 994.5
20260830215547 68 248 23.0 36.0 0.00 0.00 0.00 58 994.1
20260830215048 69 360 26.0 36.0 0.00 0.00 0.00 60 994.4
20260830214546 69 251 28.0 37.0 0.00 0.00 0.00 60 994.3
20260830214043 68 251 28.0 38.0 0.00 0.00 0.00 61 994.1
20260830213542 69 241 30.0 38.0 0.00 0.00 0.00 58 994.1
20260830212542 69 245 29.0 37.0 0.00 0.00 0.00 54 993.9
20260830212042 70 244 28.0 40.0 0.00 0.00 0.00 54 993.8
20260830211542 71 251 31.0 40.0 0.00 0.00 0.00 52 993.9
20260830211041 71 251 29.0 41.0 0.00 0.00 0.00 55 993.9
20260830210540 70 360 31.0 41.0 0.00 0.00 0.00 53 993.9
20260830210045 69 258 27.0 38.0 0.00 0.00 0.00 57 994.1
20260830205537 69 250 27.0 33.0 0.00 0.00 0.00 64 993.9
20260830205036 68 257 23.0 30.0 0.00 0.00 0.00 68 993.8
20260830204539 69 360 21.0 34.0 0.00 0.00 0.00 68 993.8
20260830204035 70 360 24.0 31.0 0.00 0.00 0.00 68 993.5
20260830203533 70 360 18.0 25.0 0.00 0.00 0.00 70 993.2
20260830202533 67 360 16.0 23.0 0.00 0.00 0.00 77 992.9
20260830202033 68 288 17.0 25.0 0.00 0.00 0.00 74 992.8
20260830201533 70 360 17.0 28.0 0.00 0.00 0.00 70 993.0
20260830201031 70 258 21.0 31.0 0.00 0.00 0.00 69 993.0
20260830200530 71 275 22.0 30.0 0.00 0.00 0.00 67 992.8
20260830200030 71 360 23.0 30.0 0.00 0.00 0.00 67 992.6
20260830195530 71 293 23.0 29.0 0.00 0.00 0.00 65 992.5
20260830195032 73 360 20.0 30.0 0.00 0.00 0.00 62 992.1
20260830194530 73 275 22.0 30.0 0.00 0.00 0.00 65 992.2
20260830194030 73 360 23.0 30.0 0.00 0.00 0.00 64 992.0
20260830193531 74 360 23.0 29.0 0.00 0.00 0.00 63 991.8
20260830192529 77 263 20.0 27.0 0.00 0.00 0.00 60 992.0
20260830192030 77 259 20.0 27.0 0.00 0.00 0.00 60 991.9
20260830191529 77 273 21.0 27.0 0.00 0.00 0.00 61 992.0
20260830191029 77 274 20.0 26.0 0.00 0.00 0.00 60 992.0
20260830190529 79 360 21.0 26.0 0.00 0.00 0.00 59 991.7
20260830190033 79 262 15.0 24.0 0.00 0.00 0.00 60 991.8
20260830185533 78 299 17.0 24.0 0.00 0.00 0.00 60 991.9
20260830185030 78 248 15.0 21.0 0.00 0.00 0.00 62 991.9
20260830184528 77 360 12.0 24.0 0.00 0.00 0.00 63 991.9
20260830184027 77 254 19.0 24.0 0.00 0.00 0.00 62 991.9
20260830183527 79 267 16.0 25.0 0.00 0.00 0.00 61 991.7
20260830182527 79 268 18.0 24.0 0.00 0.00 0.00 61 991.6
20260830182026 79 269 17.0 22.0 0.00 0.00 0.00 61 991.5
20260830181527 79 261 16.0 22.0 0.00 0.00 0.00 60 991.5
20260830181027 79 304 13.0 22.0 0.00 0.00 0.00 60 991.4
20260830180526 79 285 11.0 22.0 0.00 0.00 0.00 59 991.4
20260830180025 79 360 12.0 20.0 0.00 0.00 0.00 60 991.3
20260830175524 79 275 9.0 18.0 0.00 0.00 0.00 59 991.2
20260830175024 79 360 10.0 18.0 0.00 0.00 0.00 59 991.2
20260830174524 78 297 11.0 15.0 0.00 0.00 0.00 61 991.1
20260830174024 78 294 10.0 15.0 0.00 0.00 0.00 60 991.1
20260830173525 78 294 10.0 16.0 0.00 0.00 0.00 60 991.1
20260830172523 78 360 12.0 21.0 0.00 0.00 0.00 58 991.3
20260830172027 78 360 12.0 18.0 0.00 0.00 0.00 57 991.3
20260830171523 78 360 13.0 18.0 0.00 0.00 0.00 58 991.2
20260830171022 77 360 12.0 19.0 0.00 0.00 0.00 58 991.1
20260830170523 78 257 12.0 21.0 0.00 0.00 0.00 59 991.2
20260830170022 78 257 13.0 22.0 0.00 0.00 0.00 59 991.1
20260830165521 78 252 13.0 22.0 0.00 0.00 0.00 58 991.0
20260830165029 78 249 15.0 23.0 0.00 0.00 0.00 56 991.2
20260830164521 79 263 17.0 23.0 0.00 0.00 0.00 54 991.2
20260830164021 79 246 13.0 22.0 0.00 0.00 0.00 50 991.2
20260830163521 79 233 15.0 21.0 0.00 0.00 0.00 50 991.0
20260830162519 80 232 16.0 21.0 0.00 0.00 0.00 49 991.2
20260830162020 80 360 12.0 19.0 0.00 0.00 0.00 50 991.0
20260830161522 80 234 9.0 15.0 0.00 0.00 0.00 50 991.0
20260830161020 79 216 9.0 16.0 0.00 0.00 0.00 51 991.0
20260830160519 79 212 11.0 16.0 0.00 0.00 0.00 50 991.0
20260830160021 78 227 11.0 16.0 0.00 0.00 0.00 50 990.9
20260830155518 78 207 12.0 15.0 0.00 0.00 0.00 50 991.0
20260830155022 78 203 9.0 14.0 0.00 0.00 0.00 52 990.9
20260830154517 77 213 8.0 15.0 0.00 0.00 0.00 55 991.0
20260830154017 76 175 9.0 15.0 0.00 0.00 0.00 56 991.0
20260830153517 76 175 9.0 18.0 0.00 0.00 0.00 59 991.1
20260830152521 74 360 13.0 19.0 0.00 0.00 0.00 60 991.1
20260830152017 74 169 11.0 19.0 0.00 0.00 0.00 64 991.1
20260830151516 74 178 13.0 19.0 0.00 0.00 0.00 64 991.2
20260830151016 73 184 13.0 18.0 0.00 0.00 0.00 64 991.2
20260830150517 73 198 12.0 16.0 0.00 0.00 0.00 68 991.1
20260830150015 73 188 11.0 15.0 0.00 0.00 0.00 71 991.3
20260830145517 72 360 9.0 19.0 0.00 0.00 0.00 73 991.2
20260830145016 72 192 12.0 19.0 0.00 0.00 0.00 73 991.2
20260830144517 71 186 11.0 16.0 0.00 0.00 0.00 75 991.2
20260830144020 71 171 10.0 16.0 0.00 0.00 0.00 76 991.4
20260830143515 71 182 9.0 16.0 0.00 0.00 0.00 78 991.4
20260830142518 70 182 10.0 13.0 0.00 0.00 0.00 81 991.3
20260830142016 69 179 8.0 11.0 0.00 0.00 0.00 84 991.4
20260830141518 68 182 6.0 11.0 0.00 0.00 0.00 86 991.4
20260830141014 68 360 7.0 11.0 0.00 0.00 0.00 86 991.3
20260830140515 67 184 7.0 10.0 0.00 0.00 0.00 87 991.4
20260830140014 67 168 5.0 9.0 0.00 0.00 0.00 89 991.4
20260830135516 67 360 6.0 9.0 0.00 0.00 0.00 89 991.4
20260830135015 67 171 4.0 7.0 0.00 0.00 0.00 91 991.4
20260830134516 66 360 5.0 8.0 0.00 0.00 0.00 91 991.3
20260830134014 66 140 5.0 8.0 0.00 0.00 0.00 91 991.2
20260830133517 66 139 5.0 8.0 0.00 0.00 0.00 91 991.3
20260830132513 65 140 5.0 8.0 0.00 0.00 0.00 91 991.4
20260830132017 65 148 5.0 8.0 0.00 0.00 0.00 91 991.3
20260830131516 65 360 4.0 6.0 0.00 0.00 0.00 90 991.3
20260830131014 65 360 4.0 6.0 0.00 0.00 0.00 90 991.5
20260830130514 65 78 2.0 3.0 0.00 0.00 0.00 90 991.5
20260830130013 65 78 0.0 2.0 0.00 0.00 0.00 90 991.6
20260830125513 65 78 1.0 3.0 0.00 0.00 0.00 89 991.6
20260830125013 65 78 2.0 3.0 0.00 0.00 0.00 89 991.7
20260830124513 65 78 1.0 4.0 0.00 0.00 0.00 89 991.8
20260830124013 65 78 1.0 3.0 0.00 0.00 0.00 89 991.9
20260830123513 64 78 3.0 6.0 0.00 0.00 0.00 88 992.0
20260830122513 64 78 4.0 7.0 0.00 0.00 0.00 88 991.9
20260830122015 64 78 4.0 7.0 0.00 0.00 0.00 87 991.8
20260830121514 64 360 4.0 9.0 0.00 0.00 0.00 86 991.9
20260830121013 64 74 4.0 9.0 0.00 0.00 0.00 86 991.9
20260830120513 64 78 5.0 8.0 0.00 0.00 0.00 86 992.1
20260830120012 63 360 2.0 6.0 0.00 0.00 0.00 84 992.0
20260830115512 63 360 3.0 7.0 0.00 0.00 0.00 84 992.1
20260830115013 64 46 5.0 7.0 0.00 0.00 0.00 84 992.2
20260830114511 64 360 4.0 7.0 0.00 0.00 0.00 83 991.9
20260830114016 64 360 5.0 8.0 0.00 0.00 0.00 83 992.0
20260830113511 64 33 5.0 8.0 0.00 0.00 0.00 83 992.0
20260830112512 63 360 4.0 6.0 0.00 0.00 0.00 83 991.8
20260830112014 64 49 3.0 6.0 0.00 0.00 0.00 83 991.8
20260830111513 64 360 3.0 6.0 0.00 0.00 0.00 83 991.7
20260830111012 64 50 3.0 6.0 0.00 0.00 0.00 83 991.5
20260830110512 64 12 4.0 6.0 0.00 0.00 0.00 82 991.7
20260830110012 64 360 4.0 11.0 0.00 0.00 0.00 82 991.6
20260830105511 64 360 5.0 11.0 0.00 0.00 0.00 82 991.4
20260830105011 64 40 7.0 11.0 0.00 0.00 0.00 83 991.2
20260830104511 63 360 6.0 10.0 0.00 0.00 0.00 83 991.4
20260830104011 63 360 7.0 11.0 0.00 0.00 0.00 83 991.3
20260830103511 63 30 7.0 11.0 0.00 0.00 0.00 84 991.2
20260830102510 63 15 7.0 10.0 0.00 0.00 0.00 83 991.2
20260830102009 63 26 8.0 12.0 0.00 0.00 0.00 83 991.1
20260830101509 63 22 9.0 12.0 0.00 0.00 0.00 83 991.1
20260830101009 64 34 7.0 11.0 0.00 0.00 0.00 83 991.2